sat.trackr.live / text

‹ back to catalog

ONEWEB-0173

NORAD 48069 · 2021-025AD

PAYLOAD ACTIVE UNKNOWN

§ Identity

Operator
Country
UK
Launch date
2021-03-25
Launch site
VOSTO
Launch vehicle
Mass (kg)
RCS (m²)

Purposes: comms

External: N2YO · Heavens-Above · Gunter

§ Orbital elements

Epoch: 2026-09-20T01:12:57.972672Z

Period
109.63 min
Inclination
87.8922°
Eccentricity
0.0001520
Mean motion
13.13469802 rev/d
Perigee alt
1,208.6 km
Apogee alt
1,210.9 km
Semi-major
7,587.9 km
B*
-5.0570e-4
RAAN
301.3486°
Arg perigee
92.8624°
Mean anomaly
267.2679°
Rev number
26,625

§ Raw data

ONEWEB-01731 48069U 21025AD  26263.05067098 -.00000172  00000+0 -50570-3 0  99922 48069  87.8922 301.3486 0001520  92.8624 267.2679 13.13469802266256

JSON: /api/v1/satellites/48069 · /tle

For live sub-satellite position, see the globe view (requires WebGL).

§ Visibility from observer

Set your observer location to see the next 7 days of passes ≥ 10°. The values pass through the URL so the page stays shareable.

No JS? Fill the form by hand. The geolocation button needs JavaScript.